FENGYUN 1C DEB, 30177

Orbit data source: Space-Track

FENGYUN 1C DEB, 30177 is space debris in SSO originally from a launch on Mon, 10 May 1999 UTC launched from the Taiyaun Space Center, China (TSC). Fengyun 1C debris stems from the Chinese weather satellite Fengyun-1C, which was intentionally destroyed by a Chinese anti-satellite missile in 2007. This event dramatically increased the amount of space debris, with thousands of trackable fragments posing hazards to satellites and human spaceflight. The Fengyun 1C debris cloud has become a focal point in discussions about space sustainability and the need for international regulations to prevent the creation of new debris.

Loading next visibility...
Identifier
30177, 1999-025UJ
Orbit
SSO
Country
Flag of CNCN / PRC
Related business
Manufacturer
Unknown
Mission
Spacecraft
Bus & Motor
Unknown
Mass
Unknown
Launch date (UTC)
1999-05-10 (27 years ago)
Launch vehicle
Unknown
Launch site
Taiyaun Space Center, China (TSC)
Object type
Payload
Rocket body
Debris
Shape & HBR
Unknown shape, 0.1 m
Radar Cross Section
Medium (>0.1 m² and <1 m²)

Expand to show TLE details & history
Last TLE update: 7 hours ago

TLE from 7 hours ago
0 FENGYUN 1C DEB
1 30177U 99025UJ  26208.28349295  .00000796  00000-0  54138-3 0  9999
2 30177  98.6364 132.2011 0445383 261.6292 255.4668 13.63470453965496
Epoch: 2026-07-27T06:48Z
TLE epoch observation values (Epoch: 2026-07-27T06:48:13.790Z)
Latitude
27.46711°
Longitude
-90.3202°
Altitude
1,122.659 km
Speed
7.246 km/s
True Right ascension
21h 06m 49s
True Declination
27° 20' 00"
Sunlit
Object was in full shadow at epoch
Visualization orbit readout
Latitude
Unknown
Longitude
Unknown
Altitude
Unknown
Speed
Unknown
Apparent Right ascension
Unknown
Apparent Declination
Unknown
Sunlit
N/A
Visualization observer readout
Local Sidereal Time
03:07:12
Azimuth
Unknown
Elevation
Unknown
Doppler factor
Unknown
Orbital elements
Apogee altitude
1,349.845 km
Perigee altitude
690.814 km
Semi-major axis
7,398.466 km
Eccentricity
0.04454
Inclination
98.6364°
RAAN
132.2011°
Arg. of periapsis
261.6292°
True anomaly
250.60035°
Mean anomaly
255.4668°
Eccentric anomaly
253.02611°
Mean motion
3.4106 °/min
Orbital period
105.55 mins
BSTAR
0.00054138
Loading maneuver chart data...
Computing Atmospheric mass density...
Loading historical data...
Loading historical data...
Loading historical data...
Loading historical data...
Loading historical data...
Loading historical data...
Loading historical data...

Documentation

Showing up to 5 results
|